Wind_Speed
2 2 2 2 2 2 2 3 4 4 5 6 5 5 5 5 5 6 6 6 6 6 6 6 6 5 5 5 5 5 5 6 7 7 7 7 7 6 6 7 7 7 7
2 2 2 2 1 2 3 3 4 4 5 6 6 6 6 6 6 6 6 6 6 6 6 6 6 5 5 5 5 5 5 5 5 6 7 7 7 7 7 8 8 8 7
2 2 2 1 1 2 3 4 4 5 6 6 6 6 7 6 6 6 6 7 7 7 7 7 7 6 5 5 5 5 5 5 5 6 7 8 8 8 8 8 8 8 8
3 2 1 1 1 2 3 4 4 6 6 7 7 7 7 8 7 7 7 7 7 8 8 7 7 6 5 5 6 6 5 5 6 6 7 8 8 9 9 9 9 9 9
3 3 1 0 2 3 4 5 5 6 7 8 8 8 9 9 9 8 8 8 8 8 8 8 7 6 5 5 6 6 6 7 6 7 7 9 9 9 9 9 9 9 9
4 3 1 1 2 3 4 5 6 7 8 8 9 9 9 9 9 9 8 8 8 8 8 7 7 7 6 6 6 6 6 7 7 8 8 9 10 10 10 10 10 10 10
4 3 1 1 2 3 4 6 7 7 8 8 9 9 9 9 9 9 9 9 9 9 8 7 7 7 7 7 7 7 7 7 7 8 9 9 10 11 11 11 11 11 10
3 2 1 1 2 4 5 5 6 7 8 8 8 9 9 9 9 9 9 9 9 9 8 7 7 7 7 7 7 7 7 7 7 8 8 9 10 11 11 12 11 11 11
3 2 2 2 3 4 5 6 7 7 8 8 8 9 10 10 9 9 9 9 9 9 9 8 8 8 8 8 8 8 8 8 7 8 8 9 10 11 12 12 12 11 11
3 2 2 3 3 4 4 5 6 7 7 8 9 9 9 9 9 9 9 9 9 9 9 9 9 8 8 8 8 8 8 8 8 8 8 9 10 11 12 13 12 13 12
3 2 3 3 3 4 4 5 6 7 8 8 8 9 9 9 9 9 9 10 10 10 10 9 9 9 9 8 8 8 8 8 8 9 8 9 10 11 11 12 13 13 12
2 2 3 3 3 3 4 5 6 6 7 8 8 9 9 9 9 10 10 10 10 10 10 10 9 9 9 9 8 8 8 8 8 9 8 8 10 11 11 12 13 13 13
2 2 2 2 2 3 4 5 6 6 6 7 8 8 9 9 9 10 10 11 11 10 10 10 10 10 9 9 9 8 7 7 7 8 8 9 10 11 11 12 12 13 13
2 2 2 2 3 3 4 5 5 5 6 7 8 8 8 9 10 10 11 11 11 11 11 11 10 10 10 9 8 7 6 6 7 7 8 9 10 10 11 12 12 12 13
2 1 2 2 3 3 3 4 5 5 6 7 7 8 9 9 10 11 11 11 11 11 11 11 11 10 9 9 8 7 5 5 5 7 7 8 9 10 11 12 12 12 13
2 2 2 2 3 3 4 4 4 5 6 7 8 8 9 10 10 10 11 11 11 11 11 11 11 10 9 9 8 7 6 4 5 6 7 8 9 10 11 11 12 12 13
2 2 2 2 3 3 3 4 4 5 5 6 7 8 9 9 10 11 11 12 12 12 11 11 11 10 9 9 8 7 6 4 3 5 6 7 8 10 10 11 11 12 13
2 2 2 2 3 3 3 4 4 5 5 6 7 8 8 9 10 11 12 12 12 12 11 11 11 10 10 9 8 7 6 4 3 3 5 6 7 9 10 10 12 13 13
3 2 2 2 2 2 3 3 4 4 5 6 7 7 8 9 10 10 11 11 12 12 11 11 10 10 9 9 8 7 6 5 3 1 3 5 7 8 9 10 11 12 13
3 3 2 2 2 2 2 2 3 4 5 6 7 8 8 9 9 10 11 11 12 12 12 11 11 10 9 9 8 7 6 5 4 2 1 4 6 7 8 9 10 12 13
3 2 2 2 2 2 2 2 3 4 4 5 6 7 8 8 9 10 11 12 12 12 12 12 11 10 10 9 8 8 6 6 4 3 1 3 5 6 7 9 10 12 14
3 3 2 2 2 2 2 2 3 3 4 5 6 7 8 8 9 10 10 11 12 13 13 13 12 11 10 9 9 8 7 6 5 3 2 2 4 6 7 8 9 10 12
4 3 3 2 2 2 2 2 3 3 4 4 5 6 7 8 9 9 10 11 12 13 14 14 13 12 11 10 9 8 7 6 5 4 3 2 3 4 6 8 9 10 11
5 4 4 3 3 3 3 3 3 3 3 4 5 5 6 7 8 9 10 11 12 13 13 14 14 13 11 11 10 9 8 7 6 5 4 3 4 4 5 7 9 11 11
6 5 5 4 4 4 4 3 3 3 3 4 4 5 6 7 8 9 10 10 11 12 13 13 14 13 12 11 11 10 8 7 7 5 5 4 5 5 6 8 9 11 12
6 6 6 5 5 5 4 4 3 3 3 3 4 4 5 6 7 9 10 10 11 11 12 13 13 12 12 11 11 10 9 8 8 7 6 5 6 6 7 9 10 11 12
Wind_Direction
141 128 117 96 73 42 15 3 9 1 358 356 351 348 345 345 346 344 342 339 335 333 332 326 318 311 305 295 283 273 261 251 245 241 233 232 230 229 225 221 221 219 216
146 138 126 97 64 26 6 3 359 358 355 352 351 347 345 344 341 337 336 334 331 327 325 322 315 309 303 297 286 275 261 252 242 236 232 231 230 227 226 224 223 220 220
152 143 135 86 42 15 1 1 355 349 347 346 346 344 342 340 337 334 334 333 330 326 322 320 317 313 304 296 289 276 264 254 247 239 234 234 231 225 224 224 223 220 221
170 164 149 63 357 346 352 352 345 339 342 345 345 343 341 341 339 337 338 337 332 327 323 320 318 313 304 295 286 279 265 254 250 244 239 233 230 224 222 222 222 221 220
176 175 172 290 323 334 343 340 337 338 342 347 347 347 346 346 348 342 342 340 335 330 327 324 321 315 309 298 290 283 272 257 250 246 242 234 228 223 222 220 221 221 220
181 177 187 295 321 330 333 338 338 341 344 349 350 349 347 348 348 346 342 340 339 335 331 327 321 315 310 303 297 288 279 265 251 246 242 234 227 222 221 218 218 219 220
189 190 202 311 337 342 338 339 343 345 347 350 350 349 349 349 347 346 344 342 342 340 336 331 326 318 309 301 296 290 282 275 258 248 241 235 227 221 219 217 217 217 218
202 204 223 275 323 334 338 344 347 346 349 352 351 351 350 350 349 347 345 344 344 343 338 335 331 323 313 302 294 289 280 272 262 250 241 234 226 222 219 217 217 216 216
197 211 249 285 314 331 340 343 344 346 350 353 353 352 352 352 353 351 351 350 348 346 341 337 334 329 319 308 296 288 280 270 260 249 244 236 227 223 219 218 216 216 215
201 223 262 296 310 323 334 342 347 349 352 353 354 354 355 355 354 355 354 351 349 346 343 340 336 330 323 313 301 289 279 268 258 251 246 238 226 222 219 218 215 213 210
207 238 272 294 313 322 333 348 349 351 354 354 355 356 357 355 354 352 352 349 347 344 342 339 337 334 329 320 309 295 280 268 257 249 243 235 227 222 220 218 215 210 208
219 252 277 292 314 324 335 344 345 350 353 354 355 354 356 356 354 353 352 350 348 346 344 340 338 335 332 324 315 303 284 269 256 245 239 233 226 222 219 217 214 211 207
219 248 270 295 326 335 339 343 345 347 350 353 353 354 356 358 357 355 354 352 350 349 347 345 342 337 335 329 322 312 288 268 255 244 237 232 227 222 219 217 214 211 208
228 245 280 306 324 331 336 342 345 345 347 349 356 358 358 358 358 356 355 354 351 350 348 347 344 341 340 337 331 324 302 274 255 242 234 230 226 221 217 215 212 210 208
221 259 291 309 313 328 341 346 346 345 346 351 355 360 2 2 0 358 356 354 352 351 350 349 347 345 344 343 340 334 316 285 263 244 234 227 224 221 215 213 211 211 208
239 265 290 310 326 345 351 349 345 347 347 351 355 356 357 359 359 356 356 355 355 355 354 354 352 349 348 347 346 341 330 298 266 246 234 228 226 222 215 213 212 211 209
245 271 305 319 331 344 353 354 353 354 354 354 355 355 355 356 355 358 359 359 359 358 358 357 358 355 354 353 353 351 344 326 277 247 237 229 226 221 217 215 212 211 210
257 279 311 323 334 342 349 356 359 1 1 359 357 356 356 357 358 358 359 360 2 2 0 358 359 0 1 360 359 358 356 347 321 259 237 228 225 219 216 217 215 212 212
253 274 291 304 320 340 354 2 5 6 6 5 3 359 359 359 359 359 1 3 4 3 2 359 358 2 5 5 4 4 5 2 353 310 242 225 224 219 218 217 216 215 213
253 264 272 287 312 333 352 6 9 11 13 12 9 5 3 2 2 4 7 8 9 10 9 6 2 2 4 5 7 8 8 11 4 347 259 226 226 223 220 219 221 220 216
247 254 266 286 310 325 338 355 0 3 8 8 8 9 9 10 12 14 15 15 13 13 12 11 9 9 9 9 9 9 8 8 7 359 301 236 228 224 223 222 225 225 222
242 252 260 281 297 302 314 340 349 352 357 0 6 9 12 16 17 16 16 17 16 14 15 15 15 14 11 9 7 7 7 7 6 357 322 261 236 230 228 227 225 230 229
242 252 257 267 281 283 298 325 336 342 350 355 0 4 9 13 13 13 14 14 14 15 16 17 15 12 11 10 7 4 5 4 1 357 339 287 259 246 237 231 229 231 232
248 252 255 264 273 278 284 295 309 323 336 346 353 358 2 7 7 8 8 8 9 12 13 14 12 11 11 9 6 4 1 360 359 355 337 311 282 267 257 248 241 240 238
251 253 253 258 262 268 274 283 292 309 325 340 351 355 357 359 2 2 0 1 4 6 7 8 7 6 6 5 3 1 358 356 351 345 332 316 299 279 268 261 256 253 248
254 254 247 245 249 253 260 268 280 299 321 334 346 351 354 355 356 356 355 356 357 359 0 360 359 0 0 359 356 355 351 346 342 338 328 317 306 293 278 268 263 261 256
Height
5895 5894 5894 5894 5893 5893 5892 5892 5891 5891 5890 5889 5888 5887 5886 5885 5884 5882 5881 5880 5880 5879 5878 5877 5876 5876 5875 5874 5874 5874 5874 5874 5874 5874 5874 5875 5875 5876 5876 5877 5878 5878 5879
5894 5894 5894 5894 5893 5893 5892 5892 5891 5890 5890 5889 5888 5887 5885 5884 5883 5882 5881 5880 5879 5878 5877 5876 5875 5874 5874 5873 5873 5872 5872 5872 5872 5873 5873 5873 5874 5874 5875 5876 5876 5877 5877
5894 5894 5894 5893 5893 5893 5892 5892 5891 5890 5889 5888 5887 5886 5885 5884 5882 5881 5880 5879 5878 5877 5876 5875 5874 5873 5872 5872 5871 5871 5871 5871 5871 5871 5871 5872 5872 5873 5874 5874 5875 5876 5876
5894 5894 5894 5893 5893 5893 5892 5891 5891 5890 5889 5888 5887 5886 5884 5883 5882 5880 5879 5878 5877 5876 5875 5874 5873 5872 5871 5871 5870 5870 5869 5869 5869 5869 5870 5870 5870 5871 5872 5873 5873 5874 5875
5893 5893 5893 5893 5893 5892 5892 5891 5890 5889 5888 5888 5886 5885 5884 5882 5881 5880 5878 5877 5876 5875 5874 5872 5872 5871 5870 5869 5869 5868 5868 5868 5868 5868 5868 5868 5869 5870 5870 5871 5872 5873 5873
5893 5893 5893 5893 5893 5892 5891 5891 5890 5889 5888 5887 5886 5884 5883 5882 5880 5879 5877 5876 5875 5874 5872 5871 5870 5869 5869 5868 5867 5867 5867 5866 5866 5866 5866 5866 5867 5868 5869 5870 5870 5871 5872
5893 5893 5893 5893 5892 5892 5891 5891 5890 5889 5888 5886 5885 5884 5883 5881 5880 5878 5877 5875 5874 5873 5871 5870 5869 5868 5867 5866 5866 5865 5865 5865 5864 5864 5864 5865 5865 5866 5867 5868 5869 5869 5870
5893 5893 5893 5892 5892 5892 5891 5890 5889 5888 5887 5886 5885 5883 5882 5881 5879 5878 5876 5874 5873 5872 5871 5869 5868 5867 5866 5865 5864 5864 5863 5863 5863 5862 5863 5863 5863 5864 5865 5866 5867 5867 5868
5892 5892 5892 5892 5892 5891 5890 5889 5889 5888 5887 5886 5884 5883 5881 5880 5878 5877 5875 5874 5872 5871 5870 5868 5867 5866 5864 5863 5862 5862 5861 5861 5861 5861 5861 5861 5862 5862 5863 5864 5865 5866 5867
5892 5892 5892 5892 5891 5891 5890 5889 5888 5888 5886 5885 5884 5882 5881 5879 5878 5876 5875 5873 5872 5870 5869 5867 5866 5864 5863 5862 5861 5860 5859 5859 5859 5859 5859 5859 5860 5861 5861 5863 5864 5865 5865
5891 5892 5892 5891 5891 5890 5890 5889 5888 5887 5886 5885 5884 5882 5880 5879 5877 5876 5874 5873 5871 5869 5868 5866 5864 5863 5861 5860 5859 5858 5857 5857 5856 5856 5857 5857 5858 5859 5860 5861 5862 5863 5864
5891 5891 5891 5891 5890 5890 5889 5888 5887 5887 5886 5885 5883 5882 5880 5878 5877 5875 5874 5872 5870 5868 5867 5865 5863 5861 5860 5858 5857 5856 5855 5854 5854 5854 5855 5855 5856 5857 5858 5859 5861 5862 5863
5891 5891 5891 5890 5890 5889 5889 5888 5887 5886 5885 5884 5883 5881 5880 5878 5876 5875 5873 5871 5869 5867 5866 5864 5862 5860 5858 5857 5855 5854 5853 5852 5852 5852 5853 5854 5854 5855 5856 5858 5859 5861 5862
5890 5890 5890 5890 5889 5889 5888 5887 5887 5886 5885 5884 5883 5881 5879 5878 5876 5874 5872 5870 5868 5866 5864 5863 5861 5859 5857 5855 5853 5852 5851 5850 5850 5850 5851 5852 5853 5854 5855 5856 5858 5859 5861
5890 5890 5890 5889 5889 5888 5887 5887 5886 5886 5885 5883 5882 5881 5879 5877 5876 5874 5872 5870 5868 5866 5863 5861 5860 5858 5856 5854 5852 5851 5850 5849 5849 5849 5849 5850 5851 5852 5853 5855 5856 5858 5859
5889 5889 5889 5889 5888 5888 5887 5886 5886 5885 5884 5883 5882 5880 5879 5877 5875 5873 5871 5869 5867 5865 5863 5861 5859 5857 5855 5853 5851 5850 5849 5848 5847 5847 5848 5848 5849 5851 5852 5853 5855 5857 5858
5889 5889 5888 5888 5888 5887 5887 5886 5885 5884 5883 5882 5881 5880 5878 5877 5875 5873 5871 5869 5866 5864 5862 5860 5858 5856 5854 5852 5851 5849 5848 5847 5846 5846 5846 5847 5848 5849 5851 5852 5854 5856 5857
5888 5888 5888 5888 5887 5887 5886 5885 5885 5884 5883 5882 5880 5879 5878 5876 5874 5872 5870 5868 5866 5863 5861 5860 5858 5856 5854 5852 5850 5849 5847 5846 5845 5845 5845 5846 5847 5848 5850 5851 5853 5854 5856
5887 5887 5887 5887 5887 5886 5886 5885 5884 5883 5882 5881 5880 5879 5877 5875 5874 5872 5870 5868 5865 5863 5861 5859 5857 5855 5853 5851 5850 5849 5847 5846 5845 5845 5845 5846 5846 5847 5849 5850 5851 5853 5854
5886 5887 5887 5886 5886 5885 5885 5884 5884 5883 5882 5881 5879 5878 5877 5875 5873 5871 5869 5867 5865 5863 5861 5859 5856 5855 5853 5851 5850 5848 5847 5846 5845 5845 5845 5845 5846 5847 5848 5849 5851 5852 5854
5885 5885 5885 5885 5885 5885 5884 5884 5883 5882 5881 5880 5879 5878 5876 5875 5873 5871 5870 5868 5865 5863 5861 5859 5856 5854 5853 5851 5850 5849 5847 5846 5845 5845 5845 5845 5846 5846 5847 5848 5850 5851 5853
5884 5884 5884 5884 5884 5883 5883 5883 5882 5882 5881 5880 5878 5877 5876 5875 5873 5871 5870 5868 5866 5864 5861 5859 5857 5854 5853 5851 5850 5849 5848 5847 5846 5845 5845 5845 5845 5846 5846 5847 5849 5850 5851
5883 5883 5883 5882 5882 5882 5882 5882 5881 5880 5880 5879 5878 5877 5875 5874 5873 5871 5870 5868 5866 5864 5862 5859 5857 5855 5853 5852 5850 5849 5848 5847 5846 5845 5845 5845 5845 5845 5846 5846 5847 5849 5850
5881 5881 5881 5881 5881 5880 5880 5880 5880 5879 5879 5878 5877 5876 5875 5874 5872 5871 5870 5868 5866 5864 5862 5860 5857 5855 5853 5852 5850 5849 5848 5846 5846 5845 5845 5844 5844 5845 5845 5845 5846 5847 5848
5879 5879 5879 5879 5879 5879 5879 5878 5878 5877 5877 5876 5875 5875 5874 5873 5872 5871 5869 5868 5866 5864 5862 5860 5858 5855 5853 5852 5850 5849 5847 5846 5846 5845 5845 5844 5844 5844 5844 5845 5845 5846 5846
5877 5877 5877 5877 5877 5877 5877 5876 5876 5876 5875 5875 5874 5874 5873 5872 5871 5870 5869 5867 5866 5864 5862 5860 5857 5855 5853 5851 5850 5848 5847 5846 5845 5845 5844 5843 5843 5843 5843 5843 5843 5844 5844